Location: Unspecified
(17.6330°N, 0.0000°E)
Time: 01:38:05
(UTC+00:00)

A-11 Canister half - Pass Details

Date: 20 June 2019
Orbit: 1514 x 1686 km, 47.2° (Epoch: 13 October)

Event Time Altitude Azimuth Distance (km) Brightness Sun altitude
Rises 12:12:27 0° 283° (WNW) 4,892 11.7 83.7°
Reaches altitude 10° 12:17:52 10° 306° (NW) 3,873 11.4 83.1°
Maximum altitude 12:22:43 14° 336° (NNW) 3,494 11.2 82.4°
Drops below altitude 10° 12:27:30 10° 7° (N) 3,805 11.3 81.6°
Sets 12:32:46 0° 30° (NNE) 4,751 11.6 80.7°
